Regional Weather Roundup
Issued by NWS

Home | Current Version | Previous Version | Graphics & Text | Print | Product List | Glossary On
Versions: 1 2 3 4 5 6 7 8 9 10 11 12 13 14 15 16 17 18 19 20 21 22 23 24 25 26 27 28 29 30 31 32 33 34 35 36 37 38 39 40 41 42 43 44 45 46 47 48 49 50
408
ASUS43 KDTX 021810
RWRMI
MICHIGAN HOURLY REGIONAL WEATHER ROUNDUP
NATIONAL WEATHER SERVICE DETROIT/PONTIAC MI
100 PM EST FRI DEC 02 2016

NOTE: "FAIR" INDICATES FEW OR NO CLOUDS BELOW 12,000 FEET WITH NO
SIGNIFICANT WEATHER AND/OR OBSTRUCTION TO VISIBILITY.

MIZ047>049-052>055-059>063-066>070-074>076-081>083-021900-
SOUTHEAST LOWER MICHIGAN

CITY           SKY/WX    TMP DP  RH WIND       PRES   REMARKS
ADRIAN         CLOUDY    37  33  85 N9G18     30.08S WCI  30
6HR MIN TEMP:  36; 6HR MAX TEMP:  39; 6HR PCP:  0.01;

ALMA           CLOUDY    38  28  68 W14G20    30.07S WCI  30
ANN ARBOR      CLOUDY    39  30  70 W14G25    30.05S WCI  31
BAD AXE        FLURRIES  37  29  75 W16G24    29.98S WCI  27
CARO           CLOUDY    38  29  71 W16G23    30.01S WCI  29
DETROIT CITY   PTSUNNY   40  29  64 NW15G24   30.04S WCI  32
6HR MIN TEMP:  37; 6HR MAX TEMP:  42; 6HR PCP:  0.01;

DETROIT        CLOUDY    40  29  64 NW15      30.05S WCI  32
6HR MIN TEMP:  38; 6HR MAX TEMP:  41; 6HR PCP: TRACE;

FLINT          CLOUDY    36  29  75 NW15      30.06R WCI  27
6HR MIN TEMP:  35; 6HR MAX TEMP:  38;

GROSSE ILE     CLOUDY    41  32  70 NW10G16   30.04S
6HR MIN TEMP:  37; 6HR MAX TEMP:  41;

HILLSDALE      CLOUDY    37  30  75 W16G22    30.06S WCI  28
HOWELL         CLOUDY    37  26  66 NW14G20   30.05S WCI  28

CITY           SKY/WX    TMP DP  RH WIND       PRES   REMARKS
JACKSON        CLOUDY    37  30  75 NW16G23   30.07R WCI  28
6HR MIN TEMP:  33; 6HR MAX TEMP:  39; 6HR PCP:  0.05;

LAMBERTVILLE   CLOUDY    38  34  85 NW5       30.08S WCI  35
6HR MIN TEMP:  37; 6HR MAX TEMP:  41;

LANSING        CLOUDY    37  26  64 NW14G24   30.09R WCI  28
6HR MIN TEMP:  37; 6HR MAX TEMP:  39;

LAPEER         NOT AVBL
MASON          CLOUDY    37  30  76 NW10G16   30.07S WCI  29
MONROE         CLOUDY    40  34  79 W13G18    30.06R WCI  33
MT. CLEMENS    PTSUNNY   40  27  59 W16G24    30.00S WCI  32
6HR MIN TEMP:  37; 6HR MAX TEMP:  40; 6HR PCP:  0.03;

PONTIAC        PTSUNNY   37  26  64 W21G30    30.03R WCI  26
6HR MIN TEMP:  36; 6HR MAX TEMP:  38;

PORT HOPE        N/A     39  30  70 W12G26    29.94S WCI  32
6HR MIN TEMP:  36; 6HR MAX TEMP:  39;

PORT HURON     CLOUDY    39  28  65 W7G18     30.01S WCI  34
TRI CITIES     CLOUDY    39  29  67 W16       30.05R WCI  30
6HR MIN TEMP:  35; 6HR MAX TEMP:  39;

MIDLAND        CLOUDY    39  27  61 W15G23    30.04S WCI  31
6HR MIN TEMP:  35; 6HR MAX TEMP:  39;

TROY           CLOUDY    39  26  58 W17G28    30.06R WCI  30
SAGINAW HB     CLOUDY    37  28  70 W12       30.04R WCI  30
$$
MIZ043>046-050>051-056>058-064>065-071>073-077>080-021900-
SOUTHWEST LOWER MICHIGAN

CITY           SKY/WX    TMP DP  RH WIND       PRES   REMARKS
BATTLE CREEK   CLOUDY    37  30  75 NW10      30.10R WCI  30
6HR MIN TEMP:  35; 6HR MAX TEMP:  39; 6HR PCP:  0.01;

BENTON HARBOR  CLOUDY    39  27  62 NW10      30.15R WCI  32
6HR MIN TEMP:  38; 6HR MAX TEMP:  40; 6HR PCP: TRACE;

BIG RAPIDS     CLOUDY    36  28  72 NW10G20   30.07S WCI  28
6HR MIN TEMP:  34; 6HR MAX TEMP:  37;

COLDWATER      CLOUDY    39  31  72 NW15      30.09S WCI  31
6HR MIN TEMP:  36; 6HR MAX TEMP:  39;

FREMONT        CLOUDY    35  23  61 NW12G17   30.11R WCI  27
HOLLAND        CLOUDY    38  29  70 NW9       30.12R WCI  31
6HR MIN TEMP:  38; 6HR MAX TEMP:  39;

GRAND RAPIDS   CLOUDY    36  26  67 NW12      30.11R WCI  28
6HR MIN TEMP:  36; 6HR MAX TEMP:  38;

IONIA          CLOUDY    35  26  67 W9        30.09R WCI  28
6HR MIN TEMP:  35; 6HR MAX TEMP:  38;

KALAMAZOO      CLOUDY    38  28  67 NW13      30.11S WCI  30
6HR MIN TEMP:  36; 6HR MAX TEMP:  39; 6HR PCP:  0.02;

LUDINGTON      LGT SNOW  34  30  85 NW5       30.11R WCI  30
6HR MIN TEMP:  34; 6HR MAX TEMP:  35;

MARSHALL       CLOUDY    38  31  77 NW8       30.09R WCI  32
6HR MIN TEMP:  33; 6HR MAX TEMP:  39; 6HR PCP:  0.03;

MOUNT PLEASANT CLOUDY    37  29  73 W13G20    30.06R WCI  28
6HR MIN TEMP:  33; 6HR MAX TEMP:  38;

MUSKEGON       CLOUDY    38  26  62 NW10G16   30.13R WCI  31
6HR MIN TEMP:  37; 6HR MAX TEMP:  39;

SOUTH HAVEN    CLOUDY    39  30  69 NW8       30.14R WCI  34
$$
MIZ016>042-021900-
NORTHERN LOWER MICHIGAN

CITY           SKY/WX    TMP DP  RH WIND       PRES   REMARKS
ALPENA         LGT RAIN  37  34  89 NW9       29.95R WCI  30
6HR MIN TEMP:  35; 6HR MAX TEMP:  37; 6HR PCP:  0.02;

BEAVER ISLAND  CLOUDY    39  34  82 NW10G18   30.02S WCI  32
BELLAIRE       MIX PCPN  37  35  91 NW7       30.04R WCI  32
6HR MIN TEMP:  33; 6HR MAX TEMP:  37;

CADILLAC       CLOUDY    35  31  85 W8        30.03S WCI  28
CHARLEVOIX     CLOUDY    39  35  85 NW15      30.05R WCI  30
FRANKFORT      MIX PCPN  37  33  88 NW9       30.09R WCI  30
GAYLORD        LGT SNOW  35  32  88 W12       29.97S FOG     WCI  27
6HR MIN TEMP:  32; 6HR MAX TEMP:  35; 6HR PCP: TRACE;

GRAYLING       CLOUDY    36  33  90 W12G20    30.00S WCI  27
6HR MIN TEMP:  32; 6HR MAX TEMP:  36;

HARBOR SPRINGS CLOUDY    38  34  86 W9        30.00R WCI  31
HOUGHTON LAKE  CLOUDY    35  29  78 W14G23    30.02R WCI  26
6HR MIN TEMP:  31; 6HR MAX TEMP:  35; 6HR PCP: TRACE;

MANISTEE       LGT RAIN  36  30  79 W14       30.10R WCI  27
OSCODA         CLOUDY    41  31  67 W14G23    29.95R
6HR MIN TEMP:  34; 6HR MAX TEMP:  41;

PELLSTON       CLOUDY    39  32  76 NW13G24   29.99R WCI  31
6HR MIN TEMP:  35; 6HR MAX TEMP:  39; 6HR PCP: TRACE;

ROGERS CITY    CLOUDY    38  35  87 W7G18     29.96R WCI  33
TRAVERSE CITY  LGT RAIN  38  32  79 NW12      30.06R WCI  30
6HR MIN TEMP:  34; 6HR MAX TEMP:  38; 6HR PCP: TRACE;

$$
MIZ007>008-015-021900-
EASTERN UPPER MICHIGAN

CITY           SKY/WX    TMP DP  RH WIND       PRES   REMARKS
KINROSS        MIX PCPN  37  35  92 NW13      29.95R FOG     WCI  29
                                      6HR PCP:  0.03;

MACKINAC ISLAN CLOUDY    37  33  82 NW10G21   29.97R WCI  30
6HR MIN TEMP:  34; 6HR MAX TEMP:  37;

NEWBERRY       CLOUDY    36  35  96 NW10      29.99R FOG     WCI  28
6HR MIN TEMP:  32; 6HR MAX TEMP:  36;

S. S. MARIE    CLOUDY    38  33  82 NW10      29.94R WCI  31
6HR MIN TEMP:  35; 6HR MAX TEMP:  38; 6HR PCP:  0.01;

MUNISING         N/A     37  34  89 NW12G18   30.06R WCI  29
6HR MIN TEMP:  35; 6HR MAX TEMP:  38; 6HR PCP:  0.09;

$$
MIZ004>006-011>014-085-021900-
CENTRAL UPPER MICHIGAN

CITY           SKY/WX    TMP DP  RH WIND       PRES   REMARKS
MANISTIQUE     CLOUDY    39  34  81 NW14G21   30.03R WCI  31
ESCANABA       CLOUDY    37  28  70 NW9G18    30.08R WCI  30
6HR MIN TEMP:  30; 6HR MAX TEMP:  37;

MENOMINEE      CLOUDY    35  26  69 VRB6      30.13R WCI  30
6HR MIN TEMP:  30; 6HR MAX TEMP:  36;

SAWYER-GWINN   CLOUDY    34  28  80 NW13      30.06R WCI  25
$$
MIZ001>003-009>011-084-021900-
WESTERN UPPER MICHIGAN

CITY           SKY/WX    TMP DP  RH WIND       PRES   REMARKS
IRON MOUNTAIN  CLOUDY    34  25  69 NW13      30.08R WCI  25
6HR MIN TEMP:  29; 6HR MAX TEMP:  34;

HOUGHTON       CLOUDY    32  27  81 NW10      30.09R WCI  24
6HR MIN TEMP:  30; 6HR MAX TEMP:  32; 6HR PCP: TRACE;

COPPER HARBOR    N/A     35  32  88 N17       30.08R WCI  25
6HR MIN TEMP:  34; 6HR MAX TEMP:  36;

IRONWOOD       CLOUDY    29  26  89 W12       30.15R FOG     WCI  19
6HR MIN TEMP:  27; 6HR MAX TEMP:  29;

$$

ABBREVIATIONS USED IN REMARKS
   TC - TEMPERATURE IN CELSIUS
  WCI - WIND CHILL INDEX
   HX - HEAT INDEX
  VSB - VISIBILITY





USA.gov is the U.S. government's official web portal to all federal, state and local government web resources and services.